Dewpoint
64 65 65 66 66 66 66 66 66 66 66 66 66 65 65 65 64 64 64 65 64 63 63 63 63 63 61 61 61 61 53 52
60 60 61 64 65 66 66 66 66 66 66 65 64 64 64 64 63 63 63 63 64 63 62 63 63 60 58 57 58 59 54 53
57 56 61 63 63 65 65 66 66 65 64 63 61 57 58 58 61 61 62 63 63 63 61 60 59 58 56 55 55 50 52 53
57 61 61 62 60 63 63 63 62 60 58 59 57 60 58 57 59 61 61 62 61 60 58 56 52 46 46 49 44 48 48 50
58 60 62 62 61 61 61 60 59 59 60 59 60 59 59 57 57 57 58 55 49 49 48 45 48 45 44 44 43 42 42 45
59 58 59 60 62 58 59 57 57 57 58 60 60 59 58 57 57 54 53 50 50 49 48 49 48 46 45 44 43 40 39 39
56 58 58 62 61 59 58 58 58 60 59 60 60 60 59 58 56 53 51 49 49 48 48 46 46 44 43 42 41 41 41 38
57 57 59 62 60 59 58 58 58 59 58 61 61 61 59 57 54 51 50 49 49 48 47 45 43 43 42 41 39 37 38 40
56 58 62 63 60 59 58 58 59 59 61 62 60 60 58 56 54 50 50 50 50 49 48 46 43 40 41 40 38 37 36 38
56 58 61 63 60 59 59 61 62 62 62 61 59 59 57 55 52 50 51 50 49 48 46 43 42 40 41 38 38 36 35 38
57 59 61 63 61 60 61 61 62 62 62 61 60 58 56 54 51 51 51 49 48 45 45 43 40 39 37 39 39 36 34 32
59 61 62 62 61 60 60 61 61 62 62 61 59 57 54 52 51 51 48 46 45 43 43 43 41 40 34 37 39 37 36 34
59 61 62 60 60 59 59 60 61 61 60 60 58 55 52 52 49 48 47 45 44 45 43 43 41 42 39 37 38 38 37 34
61 61 61 60 60 58 58 59 58 58 57 55 56 53 51 50 48 46 45 44 45 45 44 41 42 41 36 36 32 34 35 36
60 60 60 59 59 58 56 55 54 54 52 51 52 51 49 48 48 45 45 45 42 43 42 42 37 40 41 34 30 28 34 36
59 60 60 59 59 58 57 56 54 54 52 49 49 49 48 46 45 45 43 41 41 41 40 41 40 36 39 38 39 37 30 29
60 60 60 59 59 59 59 57 57 54 50 49 48 47 46 43 42 42 41 39 41 42 43 42 41 41 37 39 39 38 38 32
61 60 59 59 58 58 57 57 54 52 48 46 45 43 41 41 39 40 40 39 41 42 43 43 41 40 39 39 35 33 31 31
60 59 59 59 58 57 57 56 54 52 49 46 44 42 40 39 39 39 38 39 41 42 41 41 41 39 40 38 39 37 36 34
59 59 59 58 58 58 57 56 54 54 51 47 44 42 40 39 39 39 39 39 39 39 39 38 39 39 40 40 38 38 38 36
Lifted_Index
-0 0 1 0 -0 -1 -1 -1 -1 -1 -1 -1 -1 -1 -1 -2 -2 -1 -1 -0 0 1 2 2 2 3 4 4 4 4 4 4
0 1 2 1 0 -0 -1 -1 -0 -0 -0 -0 -0 -1 -1 -1 -1 -0 0 0 1 2 2 2 3 3 4 5 5 4 4 4
1 3 3 2 1 1 -0 0 0 1 0 0 -0 -1 -1 -0 0 1 1 1 2 2 3 3 4 4 5 5 6 6 5 4
2 3 4 3 2 2 1 1 1 1 1 -0 -1 -1 -0 0 1 2 2 2 2 3 3 3 4 4 5 5 6 7 6 6
3 4 4 4 3 3 2 2 2 1 0 -0 -1 -1 0 1 2 2 2 2 2 3 3 3 4 4 5 5 7 7 8 8
4 4 4 4 3 3 3 2 1 0 -0 -1 -1 -0 1 1 2 2 2 2 2 3 3 3 4 4 5 6 7 8 9 9
5 5 4 3 3 3 2 1 1 0 0 -0 -1 -0 1 1 1 1 2 2 2 3 3 3 4 5 6 7 8 9 10 11
4 3 2 1 1 2 2 1 1 0 0 -0 -0 0 1 1 1 1 2 2 3 3 3 3 5 6 7 8 10 11 12 12
1 1 -0 -1 -0 1 1 1 0 -0 -0 -1 -0 0 1 1 1 1 2 2 3 3 4 5 6 7 8 10 11 12 13 12
-0 -1 -2 -2 -1 0 0 -0 -1 -1 -1 -1 -1 0 1 1 1 1 2 2 3 4 5 6 7 8 10 11 12 13 13 13
-1 -2 -2 -3 -2 -0 -0 -1 -1 -2 -2 -1 -0 -0 0 0 1 1 2 2 3 5 6 7 8 9 11 12 12 13 13 13
-1 -2 -2 -2 -2 -0 -0 -1 -1 -2 -2 -1 -0 -0 0 0 1 1 1 2 4 6 7 7 9 10 11 11 12 13 13 13
-2 -2 -2 -2 -2 -1 -0 -1 -1 -1 -1 -1 -0 0 1 1 1 1 2 3 5 6 7 7 8 10 9 8 9 11 12 12
-3 -2 -2 -2 -2 -1 -1 -1 -1 -1 -1 -1 0 1 1 1 1 2 3 5 6 6 6 6 7 8 7 5 6 8 10 12
-3 -3 -3 -3 -2 -2 -1 -1 -1 -1 -1 -0 1 1 2 2 2 3 4 5 6 6 6 6 5 6 6 5 6 7 9 10
-2 -3 -3 -3 -3 -3 -2 -1 -1 -1 -1 -0 1 2 2 3 4 4 5 6 6 7 6 5 4 4 5 7 8 8 8 9
-2 -2 -3 -3 -3 -3 -2 -2 -1 -1 -1 -0 0 1 2 3 4 5 6 6 7 7 5 4 4 4 6 8 9 10 10 10
-2 -2 -2 -3 -3 -3 -2 -2 -1 -1 -1 -1 -0 1 2 3 4 5 5 6 7 6 4 4 5 7 8 9 10 10 11 11
-3 -2 -2 -2 -2 -2 -2 -2 -2 -1 -1 -1 -0 0 1 2 3 4 5 6 7 5 4 5 8 10 10 10 10 10 11 11
-3 -3 -3 -2 -2 -2 -2 -2 -2 -2 -1 -1 -1 -0 0 1 3 4 5 7 6 5 5 7 9 11 11 11 10 10 11 11